CST,Max TemperatureF,Mean TemperatureF,Min TemperatureF,Max Dew PointF,MeanDew PointF,Min DewpointF,Max Humidity, Mean Humidity, Min Humidity, Max Sea Level PressureIn, Mean Sea Level PressureIn, Min Sea Level PressureIn, Max VisibilityMiles, Mean VisibilityMiles, Min VisibilityMiles, Max Wind SpeedMPH, Mean Wind SpeedMPH, Max Gust SpeedMPH,PrecipitationIn, CloudCover, Events, WindDirDegrees
2013-2-1,27,20,12,18,10,4,72,64,54,30.53,30.42,30.31,10,10,10,23,12,33,0.00,2,,243
2013-2-2,42,34,27,28,24,17,87,67,52,30.31,30.13,30.05,10,10,10,18,10,22,0.00,5,,239
2013-2-3,34,27,20,31,25,18,99,85,64,30.18,30.10,30.00,3,3,3,17,5,24,0.04,6,,253
2013-2-4,46,34,22,40,32,20,96,85,64,30.10,29.92,29.83,10,10,7,20,9,25,0.00,6,Rain,191
2013-2-5,54,41,28,37,33,28,97,79,50,30.10,29.97,29.91,10,8,2,17,6,24,0.00,1,,274
2013-2-6,47,38,28,36,33,28,99,82,57,30.28,30.19,30.10,10,8,2,17,5,,0.00,0,,111
2013-2-7,66,50,33,53,42,32,96,79,52,30.13,29.97,29.85,10,8,2,20,5,28,0.11,3,Rain,157
2013-2-8,45,40,34,43,33,28,93,81,75,30.39,30.23,29.95,10,10,7,23,15,31,0.00,8,,347
2013-2-9,46,39,32,36,32,28,88,75,61,30.39,30.28,30.11,10,10,10,13,7,20,0.00,4,Rain,103
2013-2-10,56,48,41,52,45,35,95,84,68,30.10,29.87,29.71,10,10,3,25,11,31,0.44,7,Rain-Thunderstorm,150
2013-2-11,55,46,34,50,32,29,85,61,41,30.15,30.02,29.80,10,10,10,25,14,36,0.00,0,,249
2013-2-12,48,39,30,38,32,28,96,76,52,30.17,30.07,29.90,10,10,7,8,2,,0.00,2,Rain,342
2013-2-13,49,42,34,38,35,33,99,80,55,29.92,29.88,29.85,10,8,1,13,8,,0.04,4,Rain-Snow,253
2013-2-14,58,46,35,39,37,34,99,74,43,30.05,29.94,29.88,10,9,5,18,10,22,0.00,0,,245
2013-2-15,41,35,29,36,28,21,95,72,45,30.23,30.17,30.04,10,10,7,16,6,24,0.00,3,,304
2013-2-16,36,30,25,27,20,14,92,69,41,30.23,30.19,30.17,10,10,10,16,7,24,0.00,1,,291
2013-2-17,44,33,22,28,24,20,94,70,41,30.27,30.17,30.06,10,10,10,13,5,,0.00,0,,140
2013-2-18,62,48,35,48,38,27,95,74,38,30.06,29.87,29.67,10,9,3,32,16,46,0.62,4,Rain-Thunderstorm,170
2013-2-19,41,34,27,37,24,19,86,67,49,30.27,30.08,29.84,10,10,10,28,18,37,0.00,2,,282
2013-2-20,29,26,22,21,17,13,85,69,61,30.40,30.33,30.27,10,10,10,14,8,20,0.00,0,,338
2013-2-21,35,29,23,34,26,19,97,83,66,30.33,30.12,29.85,10,8,0,21,8,25,0.30,4,Rain-Snow,64
2013-2-22,44,38,31,36,33,27,100,87,71,30.08,29.96,29.82,10,8,1,16,9,22,0.01,6,Rain,234
2013-2-23,40,34,27,30,26,24,89,76,59,30.07,30.03,29.97,10,10,7,12,4,,0.00,0,,296
2013-2-24,48,36,25,35,28,24,97,77,48,30.17,30.10,30.03,10,8,3,7,2,,0.00,0,,50
2013-2-25,51,40,30,34,31,28,92,67,47,30.08,29.92,29.59,10,10,7,23,10,29,0.00,2,Rain,60
2013-2-26,51,46,40,47,41,30,98,87,54,29.62,29.46,29.37,10,8,1,22,14,30,0.78,8,Rain-Thunderstorm,168
2013-2-27,40,37,34,37,33,31,91,83,71,29.86,29.77,29.63,10,9,3,21,15,26,0.00,8,Rain-Snow,251
2013-2-28,38,36,34,34,33,31,98,88,83,30.07,29.97,29.85,10,6,2,20,12,22,0.00,8,Rain-Snow,276